GFSNW_250_spd_114.txt.gz
Wind_Speed
125 127 122 121 118 119 120 121 121 121 118 116 109 106 109 109 107 107 104 97 94 91 84 76 69 63 55 50 49 44 42 43 44 43 42 43 44 47 50 52 52 48 46 47
101 103 108 108 112 114 119 117 114 116 115 110 103 106 109 109 106 99 93 86 79 72 69 59 52 47 44 42 39 37 38 39 39 40 40 43 47 49 47 43 42 43 43 38
88 85 84 87 94 102 108 109 109 105 103 103 102 105 101 93 90 82 72 65 64 60 50 46 42 39 38 36 35 34 36 39 39 40 44 48 46 41 39 38 39 36 32 31
70 68 67 71 80 84 86 86 81 80 81 82 83 77 73 70 63 58 58 57 52 45 41 37 34 34 34 32 35 35 36 37 41 44 46 45 40 35 31 32 31 30 26 26
66 64 62 66 70 68 68 61 57 58 61 61 60 54 51 51 51 51 46 42 38 34 35 35 34 30 32 34 34 36 37 43 44 43 43 36 35 34 32 29 29 25 18 18
63 62 62 60 57 53 45 44 46 50 45 44 44 46 48 46 43 35 32 31 32 32 31 29 29 31 30 32 37 39 42 42 42 40 36 34 33 31 29 25 22 17 16 18
57 57 55 49 45 44 43 44 45 39 40 40 43 40 36 34 30 30 30 31 30 26 24 26 28 30 33 36 40 40 42 38 35 32 31 32 29 27 22 19 16 16 16 19
49 48 47 44 45 40 37 36 36 38 37 35 28 28 27 27 27 28 28 29 25 25 28 29 32 35 36 38 41 37 30 32 30 26 27 29 25 21 18 18 16 18 20 22
44 46 47 43 37 35 35 35 35 33 30 30 26 22 21 25 25 26 27 27 29 30 31 34 36 36 38 40 35 29 25 28 25 24 22 25 21 19 20 20 20 21 22 25
43 42 39 34 33 33 33 29 27 25 28 24 21 24 28 23 21 21 23 26 29 32 36 37 38 39 35 33 29 26 20 25 23 22 22 22 21 21 22 22 22 24 22 23
39 36 36 34 33 32 29 28 29 30 29 27 28 25 21 17 21 24 27 30 33 37 40 38 39 34 30 30 26 24 18 23 23 21 22 24 24 23 23 25 23 24 25 25
38 37 34 33 30 30 26 27 32 33 31 29 25 22 20 21 25 28 31 32 34 36 38 40 33 30 28 28 25 23 19 22 23 23 24 24 25 26 26 25 24 23 25 23
38 37 35 31 32 32 34 35 32 29 25 21 18 22 24 25 27 29 29 32 35 38 38 34 30 28 26 26 25 24 19 19 24 25 26 27 28 24 24 26 25 25 26 27
38 35 32 31 36 31 31 29 26 22 21 24 25 26 28 28 27 29 32 34 34 36 35 31 29 27 25 25 25 25 20 18 27 29 28 29 31 29 27 25 26 28 30 32
37 32 31 31 30 29 30 28 24 22 23 27 27 27 27 26 27 29 30 32 33 31 29 28 26 26 25 26 26 24 22 18 30 32 30 29 30 31 28 24 25 31 35 35
35 32 30 34 32 28 27 23 23 24 26 28 27 25 25 25 27 29 30 29 27 25 25 26 25 26 26 26 25 25 24 20 30 35 34 33 32 30 28 27 27 27 30 30
36 36 32 31 30 33 26 26 27 27 26 24 25 25 23 25 26 26 26 26 24 23 24 23 24 25 26 25 25 26 25 23 27 35 37 36 35 33 32 31 31 30 29 30
37 36 33 30 29 29 30 27 26 24 23 22 21 22 25 25 24 24 24 21 20 21 23 24 25 24 25 23 24 24 24 24 26 32 37 37 36 35 34 34 33 33 33 33
36 37 35 33 33 31 30 28 25 21 20 20 22 25 23 23 23 22 21 19 20 20 22 23 22 23 22 20 22 23 24 25 26 30 34 37 37 34 33 34 33 33 35 37
34 35 37 38 35 33 30 26 24 20 21 19 20 23 22 23 22 21 20 18 18 20 20 20 20 20 19 19 21 22 24 26 27 29 31 32 31 28 28 29 29 31 36 34
38 40 38 37 34 32 29 25 23 22 20 21 21 22 22 21 20 19 20 18 16 19 19 19 17 16 18 18 19 21 23 25 26 27 27 26 26 27 30 27 27 31 28 29
35 33 34 35 34 30 26 24 22 21 20 20 22 22 20 20 18 19 20 17 15 17 18 17 15 14 15 16 18 19 22 24 26 26 27 27 28 28 27 27 30 29 26 27
30 32 30 31 29 27 24 23 22 21 21 22 22 21 20 19 18 20 20 17 14 16 17 15 13 12 13 14 15 18 19 22 25 26 27 25 25 27 28 29 31 29 30 30
30 30 31 31 29 27 25 25 25 25 25 24 22 21 21 18 20 21 21 18 16 16 16 14 13 12 12 13 14 16 19 20 23 26 28 28 28 28 29 30 30 30 28 27
31 32 34 32 29 28 27 27 27 25 23 23 22 21 21 21 21 21 20 19 18 17 16 14 13 11 12 12 14 16 18 21 23 24 26 29 29 29 29 28 28 28 27 25
33 31 29 29 29 28 27 28 28 27 24 24 23 22 22 22 21 20 21 20 19 19 15 13 12 11 11 11 13 15 17 19 21 22 23 24 24 25 26 27 27 26 24 23
33 30 30 30 29 29 29 30 28 27 25 24 23 22 23 22 21 21 21 20 20 19 16 13 13 11 12 13 13 14 16 18 19 21 22 24 24 23 24 24 24 23 22 22

GFSNW_250_spd_117.txt.gz
Wind_Speed
110 111 118 123 127 130 127 124 122 118 117 128 125 126 124 126 125 121 123 121 119 115 110 108 107 101 97 96 89 79 69 65 60 52 49 48 48 45 46 48 49 48 46 44
102 102 104 111 111 117 122 122 125 121 123 120 115 118 116 114 113 114 110 109 108 105 101 101 98 97 87 78 67 64 58 52 48 47 47 43 43 44 45 45 46 44 39 40
94 96 98 101 97 99 105 111 117 115 114 112 110 111 111 108 110 105 104 106 102 100 97 93 86 77 64 60 56 50 46 44 44 45 43 44 41 44 44 42 42 40 41 39
84 86 91 95 88 88 92 99 98 103 105 104 106 109 108 108 104 102 96 92 90 86 80 72 62 55 52 47 42 40 40 40 42 42 41 40 43 42 40 40 38 33 28 29
73 78 83 84 79 81 84 76 73 74 79 80 83 84 86 87 84 82 77 73 70 66 57 49 47 42 40 36 37 36 39 40 38 37 41 43 44 41 39 33 28 23 23 24
67 70 72 72 72 74 66 59 60 62 60 61 60 60 64 65 61 62 58 56 50 43 39 38 34 33 34 34 36 37 35 35 36 41 43 42 39 32 29 26 24 20 21 21
58 63 60 58 64 63 54 50 55 56 50 50 51 53 53 53 52 48 45 38 35 33 31 28 31 32 33 33 32 32 33 37 41 41 39 34 31 27 26 25 21 17 19 18
52 55 57 61 64 58 49 53 49 45 44 46 44 43 45 42 38 37 32 31 26 26 27 30 31 29 29 29 32 35 39 41 41 37 33 31 27 27 25 23 18 16 19 21
49 54 56 56 53 47 50 47 42 41 41 39 42 38 35 30 28 27 26 24 24 27 31 32 30 29 30 32 36 38 39 41 36 33 29 29 25 23 20 20 17 19 22 26
40 44 44 46 49 52 51 45 40 40 38 38 33 30 30 29 25 26 22 24 28 32 33 31 31 32 33 36 39 42 39 35 31 30 27 26 24 21 20 21 20 21 24 28
43 47 50 52 51 48 43 39 40 37 34 32 30 29 27 26 25 24 25 28 28 28 28 30 32 35 38 41 43 40 31 30 28 27 25 25 24 23 23 22 21 24 25 27
42 45 48 49 45 43 41 37 35 34 30 30 31 27 27 26 24 24 23 24 24 27 31 34 37 40 41 40 38 34 29 27 26 25 25 26 26 26 24 24 24 27 28 26
43 45 45 45 44 41 38 35 35 34 33 28 30 28 29 26 23 23 22 23 28 31 35 38 40 42 41 35 33 32 25 24 25 26 26 26 27 28 28 26 27 27 28 29
44 47 46 43 42 39 40 37 36 36 37 36 33 29 25 24 23 22 23 28 31 34 36 39 41 39 33 31 32 32 26 24 26 27 26 28 29 30 30 28 29 28 30 30
44 43 43 42 40 39 38 39 40 38 37 33 31 27 24 23 24 26 28 31 35 36 38 38 36 33 32 29 30 30 27 25 27 29 28 31 30 31 31 29 27 29 29 29
44 43 42 41 40 39 40 38 34 33 30 24 23 23 25 27 27 31 33 34 35 36 35 35 34 33 30 28 29 29 28 27 26 30 29 31 31 33 32 34 32 33 33 32
42 43 42 41 41 41 40 37 34 28 26 24 24 27 30 32 31 32 33 32 33 33 34 34 32 31 29 28 29 31 30 29 27 31 32 33 34 33 32 35 35 34 37 40
44 43 41 40 38 37 35 32 28 27 27 29 31 31 31 30 32 32 30 30 32 32 33 31 30 29 28 28 29 31 31 31 28 31 35 38 37 37 35 37 38 38 38 35
41 39 39 35 35 34 31 26 27 29 31 30 29 27 25 26 27 27 29 30 30 31 28 28 27 28 28 28 28 30 30 30 29 30 36 41 42 41 40 37 39 40 41 40
41 36 38 34 30 30 28 28 29 30 27 25 22 21 22 24 26 28 29 28 29 27 25 25 26 27 28 27 26 27 27 27 28 29 35 40 43 44 44 41 41 40 40 42
38 37 36 33 30 31 31 29 29 28 25 22 21 20 22 24 25 26 27 27 25 22 24 26 25 24 25 23 23 24 24 26 27 29 32 36 40 43 44 44 41 41 40 41
37 38 36 31 34 33 32 30 29 26 24 23 23 24 24 23 25 25 25 24 22 20 22 24 25 23 20 19 20 22 24 25 27 28 30 32 34 36 38 39 39 37 37 39
37 33 32 34 34 32 32 30 29 27 25 25 26 24 22 23 24 24 24 22 20 18 21 22 22 19 17 18 19 20 22 23 26 27 28 30 30 32 34 36 35 36 37 39
38 38 38 38 35 34 31 29 28 27 28 27 25 24 24 23 24 24 23 21 19 17 19 21 20 16 15 16 16 18 21 22 24 25 27 29 29 30 32 34 36 36 37 39
37 38 36 33 34 32 30 29 29 28 28 26 24 24 24 24 25 24 22 21 19 16 17 19 18 14 13 14 14 16 18 21 23 25 25 28 29 29 31 33 35 36 37 37
34 34 33 32 30 30 30 29 29 29 26 26 26 26 26 26 26 24 21 21 21 18 16 18 17 13 12 13 13 15 16 17 20 23 25 27 29 30 33 34 34 35 35 34
30 30 30 28 28 28 29 30 30 27 27 27 28 28 28 27 25 24 23 23 23 20 18 16 17 15 12 13 14 14 15 17 19 21 24 26 28 29 29 30 31 32 32 31

GFSNW_250_spd_120.txt.gz
Wind_Speed
133 135 137 138 140 138 135 138 140 136 134 133 132 128 127 129 123 122 121 126 118 116 115 112 116 113 120 113 117 114 103 96 99 94 82 72 64 64 60 54 53 51 50 50
119 123 124 126 127 127 131 135 134 132 129 130 124 119 124 120 119 116 115 113 113 111 109 108 108 111 107 100 101 97 95 89 82 70 62 57 53 51 49 49 48 51 50 46
105 109 111 113 116 114 118 122 122 119 116 114 114 115 119 120 114 117 114 108 107 109 110 107 103 102 95 96 95 90 79 69 61 56 51 48 45 45 45 47 47 46 43 37
91 94 98 103 104 106 107 114 108 100 97 91 93 97 98 104 107 106 105 105 106 107 108 106 102 99 96 94 85 66 57 53 49 45 42 41 41 44 45 46 44 40 40 38
78 81 85 91 93 93 98 100 91 89 83 82 80 81 79 85 90 94 99 98 98 98 97 96 95 90 79 64 53 50 44 41 38 37 39 40 42 44 43 42 42 38 34 33
69 72 74 78 79 81 85 76 79 74 73 72 69 62 68 71 79 78 80 82 81 86 85 73 64 56 46 43 41 37 34 34 35 38 39 38 40 42 41 38 33 28 28 26
60 65 68 70 67 66 64 62 68 64 61 56 55 63 60 59 60 56 64 61 63 59 52 47 42 39 37 34 32 31 30 33 36 36 36 38 41 40 34 28 23 25 23 20
53 58 60 60 55 52 51 56 60 51 52 53 59 58 57 54 49 51 50 50 43 41 37 34 34 30 28 28 27 29 31 32 33 37 37 38 40 32 28 24 19 20 18 16
47 50 52 51 47 48 50 54 54 53 53 51 55 50 46 43 41 41 38 34 34 31 31 30 28 26 25 26 30 30 31 33 36 36 36 37 33 27 25 23 16 17 18 20
42 44 44 45 48 49 53 52 49 51 51 49 43 37 39 39 38 34 27 28 30 28 26 26 25 27 29 30 30 32 34 36 38 38 36 33 29 24 23 21 16 17 20 24
36 38 40 44 48 50 48 46 50 51 45 40 37 35 35 34 29 26 29 29 26 26 25 25 27 29 31 31 30 35 38 38 38 37 31 30 26 25 21 19 18 19 22 28
34 37 40 42 44 46 48 52 50 44 41 37 36 34 28 26 31 29 28 27 24 21 19 24 26 28 28 32 35 39 40 39 39 34 30 29 26 24 21 19 19 21 25 30
36 39 42 44 46 49 49 43 41 40 37 35 33 30 27 29 30 26 24 23 20 22 23 22 24 28 32 36 40 41 42 40 36 30 31 26 26 24 23 19 21 23 29 31
35 39 41 42 42 43 42 41 39 38 37 31 33 35 33 29 24 22 21 19 18 19 21 24 28 33 36 40 41 42 40 35 33 31 29 27 27 26 24 23 23 26 31 35
37 40 44 46 46 45 44 41 39 38 37 38 39 34 30 27 23 21 19 19 19 21 24 29 34 38 40 42 39 38 36 34 31 30 29 29 27 26 26 25 25 30 31 31
43 42 42 42 42 40 40 39 40 41 41 40 34 33 29 25 23 22 21 20 21 26 30 34 39 43 42 38 35 36 33 34 30 28 29 30 29 28 27 27 27 30 34 36
44 44 42 41 38 37 39 42 41 37 37 35 31 28 24 23 21 20 20 22 27 32 37 39 42 39 35 35 36 32 33 33 30 30 30 31 31 29 28 29 30 31 35 35
38 38 41 43 44 43 43 42 41 40 35 30 27 26 22 19 20 21 26 30 34 37 39 38 36 35 35 35 34 33 32 33 31 31 32 32 33 31 31 32 33 35 38 38
41 41 41 43 42 42 39 37 35 31 29 27 24 22 24 25 26 29 31 34 35 35 36 35 35 35 33 34 34 32 33 34 32 32 33 34 34 33 33 34 37 36 40 43
41 40 41 41 39 37 34 33 30 27 21 19 21 25 26 27 29 31 31 30 32 33 34 33 32 33 33 31 32 32 32 33 32 32 31 35 35 35 36 37 37 36 39 44
38 40 38 35 35 34 31 27 23 22 23 25 24 25 25 24 24 24 26 28 30 31 32 31 31 32 31 30 30 31 31 30 29 29 29 33 35 37 39 39 38 39 40 40
35 34 32 31 31 30 25 21 25 24 24 25 25 25 23 22 21 23 26 27 29 30 29 29 30 29 29 28 28 28 27 25 25 27 28 31 35 38 40 42 44 45 44 43
31 30 30 27 26 25 24 24 23 24 26 27 27 25 24 22 24 25 27 27 27 26 26 25 28 28 28 28 26 25 23 23 24 26 27 29 32 36 39 42 44 45 45 47
32 30 29 30 25 27 28 27 28 29 29 28 27 26 25 26 26 27 27 25 25 25 24 21 24 26 27 24 22 21 21 22 23 25 27 28 30 33 36 39 42 44 45 45
32 32 29 29 27 30 30 31 31 31 28 28 28 28 28 27 27 27 26 25 25 24 22 19 22 25 26 23 20 19 20 20 22 25 26 27 29 31 34 36 38 40 41 43
30 30 31 30 31 34 34 33 31 31 29 29 30 29 29 28 29 29 27 26 26 24 21 19 21 24 23 21 20 18 18 19 21 22 25 26 29 30 31 33 35 37 39 41
33 33 35 35 32 32 33 34 33 33 31 31 31 31 30 30 30 30 28 27 25 24 22 20 20 23 23 19 19 18 16 18 20 22 24 26 27 29 31 32 33 35 38 39

GFSNW_250_spd_123.txt.gz
Wind_Speed
133 132 136 136 138 140 142 138 137 130 134 137 138 134 128 127 127 125 128 128 125 126 125 125 128 125 121 112 111 108 105 102 100 97 97 99 93 89 89 80 71 68 63 52
121 122 129 132 132 135 136 136 135 136 136 137 130 125 127 128 127 125 127 126 122 121 121 122 120 122 119 112 108 106 103 102 95 95 98 95 90 85 72 66 61 56 49 42
107 110 113 120 125 130 132 133 133 132 132 128 125 124 122 124 123 123 121 119 119 115 115 119 116 114 111 108 106 103 99 93 94 90 87 80 72 61 57 54 51 46 43 38
92 95 98 104 108 113 116 117 118 114 116 116 120 120 119 118 116 114 115 115 114 115 114 111 108 106 101 99 95 91 83 84 81 81 69 58 52 50 45 42 43 42 43 38
83 83 85 89 95 101 104 104 101 95 100 101 100 100 101 103 105 104 101 100 98 97 95 93 89 87 82 79 77 79 72 73 65 55 46 44 40 38 36 41 44 41 40 42
70 73 75 79 85 90 87 86 85 81 82 83 82 82 86 84 88 86 84 83 83 79 79 78 75 71 69 62 63 61 55 51 45 42 34 31 34 35 37 41 40 41 39 34
60 63 66 70 75 75 75 69 71 69 68 65 65 69 71 73 77 75 73 67 70 67 64 63 60 56 53 47 45 42 40 37 33 33 27 27 33 34 38 39 38 32 29 25
51 53 56 60 65 62 61 56 60 57 53 55 60 62 62 64 62 62 59 60 58 59 56 48 44 43 39 38 34 34 30 27 26 28 25 30 33 35 38 35 27 27 24 22
46 47 49 51 51 52 54 54 52 48 53 48 56 61 62 60 55 55 54 53 50 45 43 36 33 31 31 29 30 26 25 23 26 27 28 29 35 34 36 28 22 24 21 19
42 43 45 44 44 45 49 49 47 47 45 51 55 56 53 51 48 46 43 42 41 37 33 26 27 28 29 27 27 24 24 26 29 28 28 32 35 35 29 26 21 22 20 17
35 38 39 39 41 44 45 47 47 46 50 54 53 50 44 41 35 37 38 36 34 30 26 30 30 29 28 26 24 24 27 28 30 30 31 32 36 31 25 23 20 21 20 19
32 33 35 37 41 45 47 47 49 52 53 52 53 46 40 39 40 32 32 29 27 27 28 30 27 27 23 22 24 27 27 28 31 34 34 33 31 29 24 21 20 20 22 24
29 30 33 37 41 43 47 50 51 48 51 51 45 41 41 34 30 31 29 29 31 31 29 25 21 19 21 23 24 25 28 30 33 34 39 29 27 27 24 21 21 21 24 27
34 36 38 39 43 46 46 46 46 49 49 44 41 38 33 32 28 28 29 31 31 26 23 20 20 19 21 23 23 27 33 32 37 39 36 30 26 26 24 23 22 23 25 29
33 34 36 38 41 45 47 47 48 45 41 39 37 36 36 35 33 33 32 27 25 22 18 16 18 21 22 24 27 34 37 38 39 37 34 30 25 26 25 25 23 23 26 31
32 34 36 38 36 33 33 36 42 45 44 42 39 37 33 34 34 32 30 24 19 15 15 18 20 21 25 31 36 40 40 36 38 36 30 29 26 26 27 26 26 23 26 29
37 39 39 41 44 45 46 46 43 40 37 37 35 34 36 34 31 25 22 18 14 16 18 19 21 27 33 38 41 36 35 37 35 30 29 27 27 27 27 28 26 27 27 29
35 38 42 43 44 45 43 42 41 38 35 34 37 36 33 28 24 19 15 14 15 16 18 22 30 36 39 38 37 37 37 35 30 28 27 28 29 29 29 29 29 29 30 31
37 36 35 36 37 37 36 38 38 39 41 40 37 34 30 26 20 15 13 13 15 19 25 31 35 37 36 37 38 36 33 32 28 29 28 30 31 31 31 30 30 30 32 32
30 32 34 35 35 36 35 37 38 38 37 35 33 28 21 16 14 14 13 15 20 27 32 33 33 35 35 35 33 31 30 30 30 30 30 31 33 32 32 31 32 31 32 35
33 33 32 33 35 35 36 37 34 30 27 24 18 16 15 14 13 14 18 22 25 27 29 31 32 32 32 32 31 29 29 30 30 29 29 31 32 32 32 32 33 33 34 37
37 39 39 38 38 37 37 34 30 25 21 18 16 16 17 16 17 17 19 20 22 24 27 29 30 30 31 31 31 30 29 29 28 27 27 28 29 30 31 32 33 34 35 36
37 36 35 33 32 28 24 23 23 22 21 20 18 18 18 17 18 19 19 21 24 27 28 28 27 28 29 30 30 28 29 27 25 24 25 24 26 27 30 31 32 33 34 37
29 26 26 27 27 26 23 22 23 20 18 18 19 20 20 20 18 19 22 24 26 26 26 27 26 26 28 30 30 28 27 24 23 23 23 24 24 27 28 29 31 34 37 40
27 26 24 24 25 23 21 22 20 18 19 20 22 21 20 21 22 23 25 26 27 26 27 28 26 24 27 29 27 27 25 23 22 22 23 24 24 25 28 30 32 35 40 42
23 22 23 22 23 19 22 22 21 23 24 24 22 21 22 24 25 27 28 28 29 29 27 27 26 24 24 25 26 26 24 21 21 22 23 22 23 24 26 29 32 35 38 41
26 25 23 22 21 22 24 27 28 27 26 25 24 25 27 27 28 30 30 30 31 29 29 27 26 24 23 24 25 24 24 20 20 21 21 22 23 24 26 29 30 33 36 40

GFSNW_250_spd_126.txt.gz
Wind_Speed
143 146 143 143 143 145 144 141 140 137 136 139 138 134 129 127 129 129 128 127 128 125 121 123 121 121 119 119 118 117 121 119 115 115 114 110 106 107 105 101 91 87 83 76
131 133 135 134 136 141 140 141 141 139 142 142 135 132 131 129 130 131 131 129 129 124 123 123 123 118 118 121 121 121 120 118 110 105 108 107 108 103 96 90 79 74 74 65
120 125 125 126 128 132 132 134 128 129 134 132 127 130 128 127 126 126 127 129 127 125 123 123 121 120 121 115 110 110 110 107 105 102 99 100 93 86 80 73 68 64 57 53
103 109 113 116 121 125 126 126 120 120 123 118 120 125 124 125 123 126 128 124 122 124 120 122 124 121 113 107 106 102 100 99 93 89 87 82 70 65 63 56 53 48 48 45
92 95 99 103 106 114 116 111 108 105 108 113 113 114 115 114 119 120 120 116 118 117 118 118 116 109 107 101 98 97 92 82 74 69 70 58 55 51 44 45 43 41 41 43
81 84 87 89 92 100 95 94 91 92 92 93 94 95 99 101 104 104 105 105 108 108 106 103 98 94 90 85 81 76 73 68 61 56 52 41 40 35 35 36 38 38 39 40
72 76 79 82 85 86 82 82 86 78 78 79 77 85 86 86 87 88 88 88 88 87 82 82 78 73 69 68 65 63 63 57 47 43 33 30 31 31 32 33 34 36 39 39
62 64 68 71 73 74 70 70 74 68 66 69 69 69 73 76 78 77 76 74 73 70 69 64 62 60 59 58 52 55 50 39 35 31 24 26 29 28 29 32 33 35 35 30
55 57 59 62 63 62 60 62 64 61 58 56 66 64 66 66 66 66 62 59 60 56 55 54 50 49 49 48 44 44 37 29 27 25 23 25 28 27 29 33 32 32 29 23
44 47 50 53 54 52 54 56 59 56 53 57 57 59 60 63 60 55 54 55 51 49 47 43 41 42 42 38 38 34 29 26 27 25 23 27 29 28 30 32 32 27 26 21
40 42 44 46 46 47 47 53 53 49 50 55 56 57 54 52 46 45 49 47 44 43 39 38 39 39 36 32 32 27 26 27 28 23 24 30 28 29 30 32 31 25 24 22
35 36 38 39 40 43 48 46 46 51 54 52 52 53 48 44 45 45 44 43 38 33 34 36 37 34 30 28 27 29 29 28 24 25 28 28 29 29 30 29 27 24 24 24
32 34 34 35 38 41 45 47 48 48 50 52 52 47 43 44 43 44 39 34 34 35 33 35 31 26 26 27 29 29 28 26 27 27 28 26 31 32 28 27 26 25 24 24
30 31 31 34 38 39 40 42 46 49 51 52 49 46 48 45 43 39 38 35 31 30 28 24 25 27 27 26 25 26 26 26 27 27 27 29 33 33 27 25 26 26 24 26
31 33 34 34 35 39 44 46 49 50 49 47 39 40 43 41 39 37 32 28 26 27 24 25 27 25 23 23 24 26 27 27 26 30 31 34 34 31 28 25 27 25 27 27
30 30 29 31 34 36 40 43 44 46 44 41 46 42 40 38 35 33 32 32 29 25 26 27 27 25 22 21 24 28 26 28 32 33 34 34 32 29 28 27 28 27 27 27
27 29 31 32 35 38 39 40 40 41 44 44 43 41 37 38 37 33 28 26 25 26 27 24 22 20 20 25 25 26 31 36 36 33 33 33 30 28 28 29 29 29 28 29
33 35 36 37 38 38 36 39 39 42 45 43 41 39 35 31 29 29 30 29 28 25 21 18 19 21 23 23 28 33 35 33 33 31 28 27 27 28 29 30 30 30 31 30
40 41 43 44 44 45 46 46 42 40 39 39 37 35 35 34 35 32 31 25 21 19 18 18 19 21 24 29 32 34 34 33 31 28 26 27 28 30 30 31 31 31 33 33
36 36 36 37 37 38 39 40 43 40 39 39 38 39 39 37 33 29 25 22 18 18 15 15 20 25 28 30 33 33 32 31 29 28 28 28 29 31 33 33 33 33 34 35
36 34 34 33 32 34 36 37 36 34 34 34 35 32 30 26 22 18 17 14 14 11 13 17 23 27 28 29 31 31 31 28 25 27 29 30 30 31 33 34 34 34 35 36
36 34 35 35 35 37 36 36 37 37 36 34 31 26 23 22 20 14 12 10 9 13 16 20 22 27 27 29 31 32 29 26 25 27 28 28 28 28 29 31 32 34 35 36
36 38 38 38 40 41 41 39 37 34 31 29 28 25 20 16 14 9 5 10 14 16 18 21 25 26 27 28 28 29 28 27 26 27 26 24 22 23 25 27 30 31 32 33
37 36 39 41 39 37 34 31 29 28 27 25 21 16 14 11 5 7 13 14 17 20 22 23 24 24 26 26 26 29 28 27 27 26 22 21 19 21 24 25 26 26 29 32
34 33 32 31 30 28 25 23 22 21 19 15 14 15 12 8 10 13 16 18 20 22 23 23 23 23 25 24 24 27 29 28 27 26 22 19 19 20 23 24 26 28 30 31
24 26 27 26 24 22 20 20 20 18 16 15 14 11 11 14 16 17 20 21 22 24 24 25 24 24 24 23 24 25 27 28 26 24 22 20 18 19 22 24 25 27 29 31
20 20 20 19 19 18 17 19 21 21 18 17 15 15 16 17 19 21 22 24 24 26 27 26 25 26 25 25 25 26 26 27 26 24 22 21 20 19 20 23 26 27 29 31

GFSNW_250_spd_129.txt.gz
Wind_Speed
152 150 147 145 144 143 142 138 135 129 134 134 130 125 121 122 122 120 119 117 120 120 121 121 120 120 119 119 119 121 122 123 123 122 121 120 119 119 120 116 106 105 104 89
137 144 147 147 147 146 143 141 139 139 141 143 134 129 127 129 128 128 126 125 124 125 124 125 124 123 122 123 121 123 123 123 122 118 120 118 115 117 116 110 101 98 95 79
122 130 139 142 143 144 147 148 146 144 145 144 136 130 129 133 132 133 131 129 128 129 131 129 127 126 125 128 123 124 125 121 113 109 112 111 104 99 102 100 90 81 74 73
110 112 117 129 133 138 143 146 143 144 144 139 138 140 138 134 131 135 135 129 128 124 126 127 130 124 121 124 117 121 116 111 110 104 102 97 95 91 87 77 71 69 68 62
96 98 104 109 118 125 134 133 129 127 129 130 132 127 127 123 127 128 129 121 128 127 124 119 119 120 119 117 116 116 107 102 98 99 91 83 72 73 71 67 65 58 52 49
87 89 90 99 107 111 109 109 109 111 115 115 112 113 122 126 122 113 115 114 115 119 116 115 113 111 110 107 103 102 92 87 81 72 70 64 60 63 60 55 51 44 38 39
77 79 81 88 93 95 96 97 99 99 99 100 102 108 107 102 108 109 106 103 106 105 107 104 104 98 94 87 82 79 76 74 66 58 58 53 55 52 45 41 38 34 33 37
67 70 74 79 85 87 85 86 85 84 84 83 85 89 90 92 87 88 90 95 90 89 87 86 83 80 78 72 67 65 65 61 52 47 49 44 45 40 35 31 32 31 33 37
59 61 64 70 76 77 77 76 75 74 72 72 82 77 77 78 79 81 78 81 77 72 69 68 65 64 64 61 60 57 53 48 44 44 41 35 38 34 31 30 29 31 33 37
52 55 57 60 63 64 65 66 66 67 62 67 66 67 69 71 71 70 71 67 63 63 61 56 53 52 52 49 47 46 42 39 40 38 32 34 35 29 28 28 30 32 34 36
45 48 50 53 55 55 56 59 59 59 58 61 63 64 62 63 62 60 58 61 57 56 52 48 46 44 44 39 38 37 37 36 36 32 28 33 31 27 28 30 30 32 35 34
40 41 43 45 47 48 51 52 55 54 51 54 59 60 59 58 58 56 55 54 50 49 45 41 39 37 37 33 32 37 32 32 31 27 30 33 30 28 30 31 32 32 34 31
36 37 38 39 40 43 45 47 47 46 49 53 55 55 54 54 53 52 51 48 44 41 39 36 35 36 34 31 32 31 30 30 28 29 32 30 30 32 32 34 33 31 31 29
32 33 34 35 37 37 37 40 44 45 48 48 49 50 51 52 50 45 45 42 36 35 33 36 34 31 29 29 29 28 27 28 31 32 32 30 33 34 34 33 35 32 29 31
30 31 32 33 33 36 39 39 40 45 45 48 52 51 50 48 42 42 38 37 36 35 33 29 25 28 27 26 24 26 28 29 28 29 31 32 36 36 35 37 36 33 30 31
28 29 29 29 31 31 30 36 40 42 47 50 49 47 44 40 41 39 37 34 32 29 26 28 28 25 23 22 27 29 25 26 29 31 34 36 37 38 38 38 37 37 33 32
26 27 30 31 31 32 34 36 38 39 41 43 41 40 37 36 35 35 30 29 29 31 30 27 24 22 23 26 28 24 27 29 30 34 37 39 39 40 39 38 39 39 35 34
26 29 30 30 31 32 33 33 33 32 34 35 36 37 38 36 32 31 31 32 31 28 26 24 22 23 24 25 25 26 28 32 35 36 36 37 38 39 39 39 38 38 37 36
26 25 26 26 27 27 30 33 37 40 40 38 36 36 37 36 34 32 30 30 30 26 24 22 22 22 23 23 25 29 32 34 36 37 37 36 36 37 38 38 38 38 39 37
29 27 25 25 26 30 31 33 34 34 37 38 38 39 37 33 31 31 29 26 24 24 22 20 20 18 21 25 27 28 31 33 33 33 33 32 34 35 35 36 37 38 40 40
34 32 31 32 32 35 34 31 29 33 36 36 35 34 33 30 27 26 25 24 21 17 16 16 17 22 23 22 26 31 32 32 32 31 28 30 32 33 34 35 37 40 42 42
43 37 35 34 34 36 36 37 36 35 34 33 30 29 30 29 29 26 23 18 14 12 15 19 20 18 21 24 27 31 32 31 31 28 26 28 29 32 33 35 36 38 41 41
41 39 34 34 32 31 32 34 33 33 34 36 37 35 33 32 27 22 16 11 10 14 14 12 16 19 23 25 29 31 31 30 28 28 25 27 28 29 30 31 32 33 34 35
42 42 39 36 37 37 36 33 32 32 34 34 33 30 25 23 17 11 12 13 15 10 9 15 18 21 23 26 28 30 29 28 27 27 24 25 25 24 25 25 25 26 27 28
33 34 35 34 33 33 33 32 33 32 29 23 21 19 16 13 10 12 18 18 10 10 13 18 21 24 23 24 26 27 27 27 27 28 26 25 23 22 22 22 22 23 25 28
31 31 32 32 32 30 29 27 25 23 22 20 16 14 12 12 18 20 13 11 12 15 19 22 24 24 22 23 25 26 26 26 27 27 28 25 23 20 21 22 22 23 24 26
28 29 29 26 24 23 21 21 21 21 20 20 18 16 18 19 16 11 12 15 17 20 22 24 24 22 21 23 24 25 26 27 27 27 28 27 24 20 20 21 22 23 24 27

GFSNW_250_spd_132.txt.gz
Wind_Speed
132 140 147 151 148 147 145 142 139 135 135 137 134 128 122 117 115 115 113 110 107 108 107 106 107 105 107 108 110 113 117 121 118 119 120 121 124 124 125 125 123 122 116 99
118 122 129 138 149 151 147 147 145 140 141 143 135 126 122 121 119 118 116 112 113 112 113 113 110 110 110 112 116 119 122 124 123 124 125 123 120 122 121 123 120 110 112 99
108 110 114 123 132 141 148 149 149 148 145 142 135 129 127 125 123 122 120 117 116 116 116 117 115 118 121 122 123 123 125 126 126 125 123 119 116 113 112 110 112 107 93 89
98 103 107 111 120 126 130 138 140 144 144 142 135 134 133 129 127 126 126 123 120 120 121 123 123 124 126 127 126 127 129 127 124 120 117 113 110 107 105 105 100 91 73 70
90 93 98 105 106 114 118 121 120 127 132 138 138 136 133 132 132 128 126 126 125 124 124 127 128 130 129 130 129 131 131 122 115 110 108 105 98 94 97 91 80 67 62 60
82 85 90 94 99 103 103 106 109 114 118 123 130 128 130 133 133 131 129 128 129 129 130 133 134 133 130 129 129 129 117 115 107 101 97 91 77 85 80 66 58 55 55 53
73 78 82 86 92 86 89 94 98 102 107 110 108 119 124 129 132 132 133 133 131 131 135 132 126 123 123 121 118 111 104 100 97 93 85 72 66 65 59 50 50 48 48 44
65 69 75 80 82 78 81 82 86 86 90 93 94 100 108 122 121 118 124 123 123 129 123 117 113 106 108 101 96 90 88 86 82 73 65 57 53 55 45 44 45 39 37 35
59 62 69 72 69 65 67 74 77 77 79 83 92 93 95 93 98 105 114 107 105 107 101 99 95 91 86 82 75 72 72 73 67 57 49 41 49 45 39 38 38 32 32 31
52 56 62 60 58 55 62 71 73 72 71 76 79 80 82 85 87 86 87 90 92 90 82 80 77 73 72 68 64 63 63 58 48 41 37 35 44 38 35 33 32 30 30 31
45 49 54 54 52 53 63 64 66 66 65 67 68 70 71 71 72 73 76 79 75 74 71 69 66 64 62 59 55 54 52 43 37 35 31 36 37 35 31 30 29 28 31 32
40 43 46 48 48 50 53 56 60 61 60 59 61 62 65 66 67 66 67 67 68 66 62 57 57 56 52 49 43 43 38 36 33 30 32 34 34 30 29 29 29 31 31 33
36 38 41 43 44 45 49 53 55 55 55 55 55 60 62 62 63 63 60 60 59 57 52 52 46 43 41 38 35 38 34 32 28 30 34 30 30 29 28 29 31 33 32 36
31 34 36 38 38 41 44 49 50 50 51 52 57 55 57 59 57 56 55 56 51 46 46 42 37 35 37 34 32 30 32 31 31 27 31 27 28 30 30 33 34 34 37 38
26 29 31 32 35 39 42 43 43 45 45 49 51 50 51 52 53 51 49 46 42 41 39 34 35 33 31 25 24 30 32 28 27 28 28 27 29 32 34 35 36 38 40 41
24 26 28 30 31 31 31 30 32 37 41 44 45 47 48 48 45 42 40 39 37 34 32 32 31 26 21 24 28 32 22 23 24 25 28 30 33 36 36 38 41 44 45 43
23 25 26 26 27 30 32 35 37 36 37 38 39 41 42 39 37 34 32 32 32 30 29 27 23 24 24 24 27 20 21 22 24 28 30 32 35 38 41 43 46 48 47 45
22 24 26 29 30 31 32 30 32 33 34 33 34 33 32 31 30 30 29 30 28 27 26 26 23 22 23 26 21 19 22 26 26 29 33 36 40 43 47 49 49 47 46 45
20 20 21 22 23 24 24 25 26 26 27 28 26 26 28 31 30 29 29 25 25 26 26 23 23 24 24 19 22 24 24 25 28 33 38 43 46 48 46 45 43 43 43 43
21 19 17 17 19 20 22 23 23 26 28 30 33 32 29 27 30 29 28 26 25 23 22 23 24 21 20 22 22 20 23 28 34 39 42 42 41 39 39 40 41 41 43 43
34 30 27 25 25 23 24 26 26 25 26 27 30 29 30 30 29 27 25 25 23 23 24 22 19 19 19 18 17 23 30 33 35 38 37 37 36 34 35 37 39 39 41 41
39 38 36 34 33 32 28 28 25 25 28 26 26 30 30 28 27 28 28 26 25 24 21 20 16 14 16 18 24 27 30 33 36 35 35 36 33 32 34 37 38 40 40 39
35 36 36 37 36 36 37 36 35 32 31 34 34 34 32 32 32 31 30 27 23 20 18 11 10 16 18 20 23 27 30 33 36 37 35 35 32 31 33 35 36 37 35 35
39 40 39 35 35 33 31 31 32 32 31 30 31 33 32 31 28 25 22 18 14 13 8 7 15 15 17 20 23 26 30 33 34 34 33 33 31 29 31 31 31 31 30 30
31 35 37 36 33 32 31 31 31 32 32 30 26 25 23 22 20 16 14 11 9 5 8 13 14 16 20 23 26 27 29 30 32 30 29 31 31 28 28 28 27 26 26 27
31 31 32 32 32 31 32 32 30 29 27 25 24 23 21 19 17 14 10 7 7 10 11 14 16 19 22 25 26 26 27 29 30 28 28 29 30 28 26 27 26 25 25 25
31 31 31 30 28 26 25 26 23 23 25 25 25 23 20 16 10 8 6 7 12 14 15 16 19 22 24 26 27 27 28 30 31 31 30 29 28 28 27 27 27 25 25 25

GFSNW_250_spd_138.txt.gz
Wind_Speed
130 131 137 141 148 149 156 152 147 140 139 140 141 139 127 127 127 126 124 124 113 110 105 108 109 109 108 106 109 110 107 107 103 102 101 103 101 103 104 105 108 108 111 99
121 126 127 131 137 143 147 151 149 151 149 150 145 135 131 134 131 127 123 119 117 114 112 114 114 111 110 110 112 112 110 109 107 105 104 105 106 106 108 108 110 108 116 107
114 113 117 128 128 129 137 143 142 146 151 152 148 147 139 135 132 132 128 123 120 119 117 114 115 113 113 112 113 113 113 111 110 108 110 109 109 109 111 113 113 116 112 116
101 105 114 116 120 124 130 131 131 130 136 138 139 137 136 140 134 131 128 128 123 122 118 120 118 120 120 119 117 117 116 115 113 112 112 113 111 111 113 114 116 120 112 115
92 101 102 105 110 112 122 122 122 125 123 123 124 125 126 129 133 129 129 129 127 126 124 123 125 124 122 121 121 120 118 119 116 116 114 115 114 113 117 119 117 119 116 112
85 92 90 93 97 99 106 111 106 114 114 116 115 111 108 112 121 120 123 124 126 129 129 128 129 124 124 126 125 122 121 121 119 117 116 118 114 115 119 118 114 117 115 114
80 78 75 80 85 85 88 99 99 96 102 107 107 106 104 106 107 107 109 113 117 123 128 128 127 125 126 125 122 122 121 119 117 116 118 117 115 114 117 116 112 114 107 103
68 70 72 72 73 74 76 84 93 90 88 92 96 97 95 94 96 96 100 102 104 108 112 120 126 125 126 124 118 115 115 114 116 117 116 114 113 113 116 113 106 107 100 94
61 63 59 67 73 77 77 84 86 87 75 84 83 85 87 88 88 89 91 90 93 99 104 108 111 111 112 112 115 111 109 110 111 112 115 115 106 106 106 96 93 90 76 67
53 56 59 68 72 72 72 74 75 78 72 68 71 76 77 78 78 78 83 87 87 87 91 95 99 101 99 99 99 102 108 109 107 107 103 99 97 98 97 93 77 71 63 55
47 52 56 58 58 59 60 63 66 66 60 59 65 70 70 70 70 71 73 79 77 79 81 82 83 88 92 95 95 94 95 95 94 94 90 89 88 81 74 69 62 55 52 48
39 43 47 48 48 47 50 55 57 55 51 50 59 64 65 64 65 66 68 69 69 72 76 74 75 75 80 83 83 84 85 88 86 83 79 76 70 62 58 57 50 46 44 41
34 37 41 41 41 44 48 49 48 46 45 50 58 59 60 60 61 58 60 61 62 61 64 69 71 70 72 74 77 78 78 78 75 70 66 60 50 48 50 48 43 39 38 37
30 34 36 37 38 41 42 44 44 41 44 51 54 55 58 56 55 54 55 56 57 58 57 59 60 61 62 64 62 62 63 61 57 50 51 44 43 41 41 39 35 35 35 33
25 27 30 33 35 34 34 37 39 43 47 50 55 53 51 50 50 50 51 51 51 52 52 50 51 52 52 53 51 50 52 49 43 41 42 37 38 34 35 33 33 31 31 32
22 24 26 28 29 32 36 39 40 45 52 55 48 49 46 46 47 45 45 45 46 47 45 44 42 44 43 41 40 45 43 39 32 37 35 32 32 30 31 31 31 29 29 29
21 22 24 28 33 36 41 46 49 47 43 37 36 35 39 39 39 40 44 44 42 38 37 36 37 38 35 35 37 44 33 30 33 32 29 28 28 28 26 24 24 27 29 31
21 23 26 27 30 34 34 31 30 32 32 33 35 37 37 36 36 40 41 35 30 35 36 36 36 33 31 30 42 30 28 30 27 27 27 26 22 20 21 23 26 30 33 36
20 21 22 23 25 27 28 29 28 27 27 28 30 32 32 33 35 35 31 30 34 34 32 33 32 29 31 41 24 28 27 25 25 24 21 18 19 20 23 28 33 36 39 42
23 21 20 20 21 21 22 24 24 25 26 26 27 30 30 30 29 30 30 27 27 30 33 30 30 34 30 26 28 26 25 23 21 19 18 16 18 24 30 36 39 41 41 41
27 25 24 23 23 24 26 27 28 28 28 29 28 27 26 27 28 26 27 29 29 28 28 29 29 27 26 26 25 23 22 22 19 15 15 21 27 32 36 38 37 33 33 33
28 30 28 26 24 24 26 28 28 27 26 28 29 28 28 29 28 27 26 27 27 29 28 28 27 28 27 26 24 24 21 16 16 18 23 27 29 32 33 34 34 33 33 33
28 31 32 30 29 26 27 31 33 34 34 33 32 31 31 31 32 30 30 30 30 29 29 27 27 27 24 23 21 17 17 19 19 21 23 25 29 32 33 35 36 34 33 33
25 27 31 31 31 29 26 25 26 27 26 28 29 29 29 29 29 28 28 27 27 24 23 24 24 22 21 17 16 17 18 18 20 20 23 26 30 33 34 36 36 33 33 33
26 27 30 33 34 35 34 33 34 35 35 33 30 29 28 27 27 26 25 25 24 27 27 22 17 16 16 17 18 17 18 19 20 21 24 27 31 34 35 35 35 34 33 32
29 30 32 32 33 32 32 31 31 32 32 32 31 30 28 27 26 26 27 27 25 22 18 15 14 15 17 17 16 16 17 18 20 22 25 28 32 34 35 35 35 35 35 33
36 34 33 33 33 33 33 33 31 29 30 31 30 29 30 28 27 25 23 21 19 17 16 17 16 17 17 17 16 16 18 19 22 24 27 30 33 35 35 36 36 36 35 35

GFSNW_250_spd_141.txt.gz
Wind_Speed
126 132 133 138 143 141 154 149 145 142 142 139 138 137 123 125 128 120 120 117 115 114 114 114 110 109 110 107 107 109 109 106 108 103 100 103 101 104 108 108 107 107 108 100
119 120 121 127 135 133 141 146 149 151 152 150 143 137 126 129 127 122 125 121 120 122 120 121 119 119 113 113 113 112 109 111 111 107 103 105 105 105 108 110 107 105 112 103
106 109 115 118 122 125 135 135 141 147 152 153 152 146 137 133 129 128 126 125 126 124 120 121 122 119 116 115 113 110 111 110 109 109 112 111 107 107 107 109 109 114 111 112
94 99 107 109 114 117 124 125 127 132 131 137 141 143 143 146 144 135 131 127 127 123 122 122 124 123 120 118 117 117 117 114 113 110 113 115 115 109 110 113 114 120 113 116
85 89 93 95 103 110 118 119 117 118 123 128 130 129 140 144 146 143 132 135 135 130 129 129 130 127 126 124 122 125 122 119 116 117 115 118 116 112 114 116 115 118 118 113
76 79 85 92 96 105 107 111 115 106 113 114 120 122 121 126 133 137 137 135 143 137 137 135 130 127 128 128 128 131 126 123 121 119 119 118 115 111 114 117 118 120 115 115
69 67 72 77 82 91 96 102 107 105 97 108 109 108 112 116 118 118 118 121 124 133 136 134 136 139 134 133 128 131 125 123 122 120 118 120 115 113 115 116 115 116 115 112
59 65 70 73 77 82 87 93 97 91 90 98 102 105 102 104 107 109 110 112 113 112 112 115 118 118 124 129 130 127 129 124 121 120 121 118 113 113 112 116 112 112 110 107
56 63 66 67 73 79 80 79 82 80 85 87 93 99 101 101 98 100 100 102 103 99 102 106 108 108 110 110 111 109 110 111 112 112 113 112 106 108 108 109 104 103 99 95
54 57 59 64 68 71 69 64 74 77 79 79 79 79 85 91 94 95 97 98 99 98 95 96 97 99 97 99 95 96 97 98 99 100 99 94 95 95 98 95 91 88 87 85
47 50 54 58 61 56 65 59 64 67 74 75 74 70 75 81 86 87 88 90 88 84 86 84 82 83 85 85 82 83 85 86 87 88 90 87 89 88 91 88 86 82 81 78
43 45 47 49 52 61 55 55 61 61 66 73 68 66 67 71 74 76 80 77 78 78 80 77 75 76 74 73 75 81 76 78 80 80 80 79 81 84 83 83 78 74 72 66
36 38 40 41 45 52 55 56 56 61 67 61 59 52 55 57 68 71 70 67 69 68 66 70 68 67 65 67 68 72 71 70 71 73 70 74 75 73 72 72 70 66 61 56
31 33 35 37 41 46 47 46 47 50 53 52 48 47 50 58 64 61 63 62 59 61 62 62 62 61 63 62 64 66 67 67 66 65 67 69 65 64 63 60 58 55 51 46
28 31 33 35 38 39 38 39 41 44 43 42 42 45 52 59 56 53 54 54 57 57 57 56 55 57 58 59 61 58 63 62 63 63 61 59 58 56 52 50 49 45 41 38
25 28 30 32 33 34 35 36 36 36 38 39 45 48 55 50 47 46 48 50 52 51 51 49 50 52 52 52 52 54 55 55 52 53 54 50 49 45 44 41 39 38 35 33
24 25 27 29 31 32 32 34 39 39 42 43 46 51 46 42 41 42 44 44 45 45 43 44 46 47 45 44 46 50 51 46 47 46 43 41 41 37 36 35 32 30 31 32
23 25 27 27 27 30 32 36 38 40 43 47 46 42 38 36 37 38 40 41 41 41 40 40 40 36 35 36 46 50 43 41 38 36 38 37 33 34 30 28 29 31 31 31
22 23 25 27 31 34 34 35 36 37 38 31 31 27 26 26 30 33 36 36 35 34 35 35 35 34 32 45 52 39 35 31 34 35 32 31 29 26 28 30 27 27 29 32
21 21 20 21 22 23 23 23 21 22 21 23 23 27 29 31 33 34 33 32 32 33 35 35 32 36 42 42 36 29 29 34 31 30 30 27 26 27 26 25 26 30 33 37
23 22 22 22 22 22 22 23 25 27 28 30 30 30 30 31 31 30 27 27 31 34 33 32 34 36 33 29 26 31 30 28 29 28 26 25 24 24 23 26 30 35 38 39
22 25 25 25 25 24 24 25 26 26 25 26 26 26 27 27 25 25 25 27 30 33 30 28 29 26 28 31 31 28 28 27 27 25 24 22 20 21 26 30 34 36 36 35
22 22 24 24 24 23 24 25 27 28 27 29 29 28 27 27 27 27 29 30 28 27 28 27 27 28 28 28 27 26 25 24 23 21 20 20 22 25 28 31 33 34 34 33
16 20 23 25 25 24 23 22 24 25 25 26 27 28 29 29 29 27 28 27 27 27 24 25 26 26 26 25 24 24 23 22 19 20 21 22 25 27 29 32 33 34 34 33
16 18 21 23 24 24 22 22 21 21 23 25 25 23 23 25 26 26 25 24 22 23 25 25 24 21 20 22 23 22 20 19 22 22 22 24 26 28 29 31 34 35 35 35
18 18 20 23 24 23 24 24 25 25 26 26 26 25 23 24 24 23 22 24 26 26 24 22 22 24 23 21 19 18 20 22 21 23 24 26 27 27 30 33 35 37 37 37
22 20 20 20 22 24 24 22 22 21 23 24 25 27 28 27 27 27 26 27 24 23 23 22 20 19 17 17 17 20 21 22 23 24 26 27 28 29 33 36 37 37 38 38

GFSNW_250_spd_147.txt.gz
Wind_Speed
124 126 128 129 130 132 137 141 143 130 143 149 149 147 135 123 121 121 126 129 123 116 114 113 113 110 107 109 109 113 110 111 105 101 101 102 101 99 100 97 95 97 96 96
114 118 119 122 125 129 134 137 137 130 141 144 142 141 142 135 129 125 127 131 126 124 120 118 113 112 113 110 109 110 109 114 109 110 107 104 106 101 101 103 103 101 101 99
100 104 108 112 115 120 128 129 133 132 136 137 137 137 133 138 137 136 138 136 133 126 121 122 118 118 114 115 114 112 112 113 112 111 108 107 107 106 105 107 109 105 102 102
86 88 93 100 105 111 115 119 121 125 125 121 130 134 130 130 133 134 141 142 135 132 126 124 121 120 118 118 115 116 118 119 117 112 111 112 111 110 109 112 109 111 108 110
77 78 81 86 94 101 103 104 110 117 114 113 116 123 121 123 128 127 129 136 137 140 134 132 131 128 123 121 117 116 119 120 119 118 118 120 119 111 111 113 119 120 118 110
69 72 76 78 83 90 86 89 99 105 110 106 102 103 103 109 118 119 123 126 130 133 137 135 134 136 133 129 127 128 130 130 129 127 125 128 124 112 117 117 116 115 116 112
60 65 69 73 76 76 76 81 89 96 93 95 97 94 94 101 102 106 111 117 121 118 130 134 137 137 138 138 134 137 135 130 131 127 128 129 118 119 119 120 119 122 122 118
54 57 61 66 70 67 66 71 79 81 85 89 92 94 91 87 86 89 97 102 111 113 114 117 123 121 125 131 135 137 140 140 139 139 138 138 130 126 124 125 122 125 128 130
47 50 54 58 62 62 61 66 71 71 76 77 84 82 81 79 69 76 84 89 96 100 103 113 110 113 114 117 121 123 127 129 132 134 131 130 128 136 136 133 131 130 128 123
41 44 47 51 53 54 55 61 66 66 68 70 74 75 73 74 73 72 78 83 91 95 98 102 108 112 106 106 104 106 109 111 113 115 117 114 113 115 114 109 104 103 102 103
36 39 41 45 47 49 52 58 60 61 63 65 66 69 72 74 63 59 68 75 79 84 88 93 93 95 94 95 95 97 99 94 91 93 98 97 94 98 95 94 92 90 89 88
32 34 36 38 40 44 48 53 54 56 61 60 64 66 67 65 58 59 65 70 72 74 79 84 86 88 88 88 86 84 82 77 78 78 80 83 79 81 82 83 83 82 81 80
27 29 31 33 36 41 47 52 55 54 59 58 57 58 60 60 61 56 54 59 65 71 75 76 81 85 89 83 78 79 74 77 74 73 71 75 75 76 77 78 77 73 69 69
22 24 27 29 33 40 46 48 50 53 54 53 50 55 57 58 56 52 43 47 58 62 68 72 77 77 81 78 74 71 71 70 66 64 63 69 70 72 70 67 68 60 60 59
20 21 25 30 35 40 43 44 44 47 48 47 48 53 56 53 52 46 41 34 50 61 65 68 72 73 72 71 68 64 65 62 58 56 61 62 64 62 61 59 60 61 54 50
17 20 24 29 34 35 35 37 39 39 39 41 46 44 43 40 41 38 40 44 51 59 63 65 66 67 67 64 55 56 55 58 58 55 54 54 54 53 53 53 54 51 48 43
15 18 22 25 27 28 27 27 33 35 36 32 34 34 34 38 41 41 44 46 48 54 59 66 66 55 48 43 39 51 54 58 55 47 43 46 47 44 49 47 43 41 41 38
12 14 17 20 20 22 25 27 29 29 28 32 34 36 38 38 38 39 37 40 50 58 58 55 55 48 39 36 49 53 54 50 45 42 40 43 42 42 43 37 36 36 35 34
12 15 18 21 23 25 26 28 28 28 29 30 32 34 35 34 34 34 39 45 41 40 45 47 40 39 40 48 46 45 41 35 37 35 37 39 37 35 32 35 33 32 32 31
12 13 15 17 19 20 22 23 25 28 27 29 30 31 31 34 37 38 37 33 32 35 35 33 36 37 42 41 38 32 27 29 31 33 35 34 30 31 30 32 30 31 28 26
11 14 14 17 18 19 20 23 25 27 28 30 30 30 30 32 30 26 27 30 32 32 28 32 34 35 35 31 29 27 28 30 30 30 29 28 29 30 30 30 28 26 23 23
9 11 14 16 16 18 20 21 23 24 24 24 23 24 20 21 24 26 28 29 29 27 27 29 31 30 30 29 28 28 28 28 26 25 27 27 28 26 25 26 23 22 21 22
12 13 15 16 18 20 21 22 20 22 18 17 21 25 23 24 26 25 26 28 28 28 28 29 27 26 27 26 26 24 24 23 27 29 24 21 22 26 25 22 21 22 22 25
10 12 14 15 17 16 17 17 17 18 19 19 20 17 17 19 20 23 23 25 26 27 27 27 26 23 20 23 27 27 25 24 25 23 23 24 23 22 21 21 21 22 26 27
10 8 8 11 11 13 14 14 16 18 19 18 19 21 21 22 22 20 20 21 21 23 24 23 19 20 25 24 21 20 20 19 20 20 21 23 21 20 20 20 23 25 26 28
14 12 11 10 9 8 10 12 14 15 14 14 15 16 18 21 24 26 25 24 22 19 19 20 21 21 21 21 19 18 18 20 21 21 19 18 18 20 22 23 23 26 28 29
16 15 14 13 11 10 11 11 11 11 11 13 16 17 17 16 17 16 16 17 16 16 16 15 14 15 14 16 20 20 19 19 18 18 18 20 22 22 22 23 26 28 30 32